Location: Unspecified
(0.0000°N, 0.0000°E)
Time: 09:52:41
(UTC+00:00)

LilacSat-2 - Pass Details

Date: 12 December 2017
Orbit: 513 x 538 km, 97.5° (Epoch: 18 February)

Event Time Altitude Azimuth Distance (km) Brightness Sun altitude
Rises 04:43:23 0° 49° (NE) 2,674 ? -16.1°
Reaches altitude 10° 04:47:10 10° 88° (E) 1,784 ? -15.3°
Maximum altitude 04:48:05 11° 101° (ESE) 1,738 ? -15.1°
Drops below altitude 10° 04:49:00 10° 115° (ESE) 1,783 ? -14.8°
Sets 04:52:45 0° 154° (SSE) 2,671 ? -14.0°
